Other Public Products
Issued by NWS Charleston, SC

Home | Current Version | Previous Version | Text Only | Print | Product List | Glossary On
Versions: 1 2 3 4 5 6 7 8 9 10 11 12 13 14 15 16 17 18 19 20 21 22 23 24 25 26 27 28 29 30 31 32 33 34 35 36 37 38 39 40 41 42 43 44 45 46 47 48 49 50
406
FPUS82 KCHS 201027
OPUCHS

TEST...KCHS/KSAV Gateway Observations...TEST
National Weather Service Charleston SC
600 AM EDT SUN MAY 20 2018

NOTE: "fair" indicates few or no clouds below 12,000 feet with no
significant weather and/or obstructions to visibility.

SCZ050-WAZ558-NCZ071-TXZ119-213-PAZ071-DCZ001-FLZ074-172-MI076-
NYZ176-178-MAZ016-IL014-TNZ027-NJZ106-GAZ044-MD014-201100-

...Gateway Observations for Charleston International...

CITY           SKY/WX    TMP DP  RH WIND       PRES   REMARKS
Chas Airport   CLOUDY    72  70  93 SE3       30.12R
Seattle        CLOUDY    55  50  83 S7        29.99S
Charlotte      CLOUDY    71  70  96 S5        30.12R
Dallas DFW     CLOUDY    75  68  78 S6        29.93R
Dallas Love    CLOUDY    76  69  79 SE13      29.92S
Philladelphia  CLOUDY    70  67  90 S13       29.98S
Wash National  CLOUDY    69  66  90 S5        30.01R
Baltimore      MOCLDY    70  69  97 SW5       29.99S
Miami          RAIN      72  72 100 S7        30.04R FOG
Detroit        CLOUDY    62  56  80 N7        30.03R
Newark         CLOUDY    59  59 100 CALM      29.96F FOG
Laguardia      CLOUDY    59  59 100 CALM      29.96S FOG
J F K          FOG       60  60 100 S3        29.98S VSB 1/8
Boston Logan   MOCLDY    64  63  96 SW13      29.90F
Ft. Lauderdale HVY RAIN  72  72 100 SW9G25    30.04R FOG
Chicago O`Hare CLOUDY    47  40  76 NE22      30.10R
Chicago Midway CLOUDY    48  42  80 N10       30.10R
Houston Bush   FAIR      73  72  96 CALM      29.98R
Houston Hobby  FAIR      76  75  97 CALM      29.97R
Nashville      FAIR      66  61  84 CALM      30.07F
Atlanta        FAIR      69  68  96 CALM      30.10R

$$

GAZ044-118-TXZ119-213-NCZ071-DCZ001-MDZ014-506-PAZ021-071-NJZ106-
NYZ176-178-MAZ106-OHZ011-021-055-MIZ076-KYZ091-ILZ014-INZ047-
MNZ060-ONZ431-201100-

...Gateway Observations for Savannah International...

CITY           SKY/WX    TMP DP  RH WIND       PRES   REMARKS
Savannah Arpt  MOCLDY    73  71  93 SW3       30.12R
Atlanta        FAIR      69  68  96 CALM      30.10R
Charlotte      CLOUDY    71  70  96 S5        30.12R
Dallas DFW     CLOUDY    75  68  78 S6        29.93R
Houston Bush   FAIR      73  72  96 CALM      29.98R
Wash National  CLOUDY    69  66  90 S5        30.01R
Wash Dulles    CLOUDY    69  69 100 SW9       30.01R
Baltimore      MOCLDY    70  69  97 SW5       29.99S
Philadelphia   CLOUDY    70  67  90 S13       29.98S
Newark         CLOUDY    59  59 100 CALM      29.96F FOG
Laguardia      CLOUDY    59  59 100 CALM      29.96S FOG
J F K          FOG       60  60 100 S3        29.98S VSB 1/8
Boston         MOCLDY    64  63  96 SW13      29.90F
Pittsburg      LGT RAIN  66  64  93 W10       29.99R
Akron          CLOUDY    67  62  84 W8        30.01R
Cleveland      CLOUDY    64  61  90 NW9       30.03R
Cincinnati     MOCLDY    65  63  93 S6        30.04R FOG
Columbus       CLOUDY    63  63 100 MISG      30.03R FOG
Detroit        CLOUDY    62  56  80 N7        30.03R
Chicago O`Hare CLOUDY    47  40  76 NE22      30.10R
Minneapolis    MOCLDY    47  38  71 NE10      30.19S
Indianapolis   MOCLDY    65  62  90 NE9       30.03R FOG
Toronto Canada MOCLDY    57  54  88 NW17      29.93R

$$




USA.gov is the U.S. government's official web portal to all federal, state and local government web resources and services.